owner,sensor,date,latitude,longitude,vertical_datum,sea_water_temperature,qcFlag
Walter,ioos:station:wmo:42896:2,2021-12-15T00:06:00Z,28.3093,-89.9227,30.0,25.1,11111222
Walter,ioos:station:wmo:42896:2,2021-12-15T00:11:00Z,28.3093,-89.9227,30.0,25.1,11111222
Walter,ioos:station:wmo:42896:2,2021-12-15T00:16:00Z,28.3093,-89.9227,30.0,25.2,11111222
Walter,ioos:station:wmo:42896:2,2021-12-15T00:26:00Z,28.3093,-89.9227,30.0,25.2,11111222
Walter,ioos:station:wmo:42896:2,2021-12-15T00:36:00Z,28.3093,-89.9227,30.0,25.2,11111222
Walter,ioos:station:wmo:42896:2,2021-12-15T00:46:00Z,28.3093,-89.9227,30.0,25.2,11111222
Walter,ioos:station:wmo:42896:2,2021-12-15T00:56:00Z,28.3093,-89.9227,30.0,25.2,11111222
Walter,ioos:station:wmo:42896:2,2021-12-15T01:06:00Z,28.3093,-89.9227,30.0,25.2,11111222
Walter,ioos:station:wmo:42896:2,2021-12-15T01:16:00Z,28.3093,-89.9227,30.0,25.2,11111222
Walter,ioos:station:wmo:42896:2,2021-12-15T01:26:00Z,28.3093,-89.9227,30.0,25.2,11111222
Walter,ioos:station:wmo:42896:2,2021-12-15T01:36:00Z,28.3093,-89.9227,30.0,25.2,11111222
Walter,ioos:station:wmo:42896:2,2021-12-15T01:46:00Z,28.3093,-89.9227,30.0,25.2,11111222
Walter,ioos:station:wmo:42896:2,2021-12-15T01:56:00Z,28.3093,-89.9227,30.0,25.2,11111222
Walter,ioos:station:wmo:42896:2,2021-12-15T02:06:00Z,28.3093,-89.9227,30.0,25.2,11111222
Walter,ioos:station:wmo:42896:2,2021-12-15T02:16:00Z,28.3093,-89.9227,30.0,25.2,11111222
Walter,ioos:station:wmo:42896:2,2021-12-15T02:26:00Z,28.3093,-89.9227,30.0,25.2,11111222
Walter,ioos:station:wmo:42896:2,2021-12-15T02:36:00Z,28.3093,-89.9227,30.0,25.2,11111222
Walter,ioos:station:wmo:42896:2,2021-12-15T02:46:00Z,28.3093,-89.9227,30.0,25.2,11111222
Walter,ioos:station:wmo:42896:2,2021-12-15T02:56:00Z,28.3093,-89.9227,30.0,25.1,11111222
Walter,ioos:station:wmo:42896:2,2021-12-15T03:06:00Z,28.3093,-89.9227,30.0,25.1,11111222
Walter,ioos:station:wmo:42896:2,2021-12-15T03:16:00Z,28.3093,-89.9227,30.0,25.1,11111222
Walter,ioos:station:wmo:42896:2,2021-12-15T03:26:00Z,28.3093,-89.9227,30.0,25.1,11111222
Walter,ioos:station:wmo:42896:2,2021-12-15T03:36:00Z,28.3093,-89.9227,30.0,25.1,11111222
Walter,ioos:station:wmo:42896:2,2021-12-15T03:46:00Z,28.3093,-89.9227,30.0,25.1,11111222
Walter,ioos:station:wmo:42896:2,2021-12-15T03:56:00Z,28.3093,-89.9227,30.0,25.1,11111222
Walter,ioos:station:wmo:42896:2,2021-12-15T04:06:00Z,28.3093,-89.9227,30.0,25.1,11111222
Walter,ioos:station:wmo:42896:2,2021-12-15T04:16:00Z,28.3093,-89.9227,30.0,25.1,11111222
Walter,ioos:station:wmo:42896:2,2021-12-15T04:26:00Z,28.3093,-89.9227,30.0,25.1,11111222
Walter,ioos:station:wmo:42896:2,2021-12-15T04:36:00Z,28.3093,-89.9227,30.0,25.1,11111222
Walter,ioos:station:wmo:42896:2,2021-12-15T04:46:00Z,28.3093,-89.9227,30.0,25.2,11111222
Walter,ioos:station:wmo:42896:2,2021-12-15T04:56:00Z,28.3093,-89.9227,30.0,25.2,11111222
Walter,ioos:station:wmo:42896:2,2021-12-15T05:06:00Z,28.3093,-89.9227,30.0,25.2,11111222
Walter,ioos:station:wmo:42896:2,2021-12-15T05:16:00Z,28.3093,-89.9227,30.0,25.2,11111222
Walter,ioos:station:wmo:42896:2,2021-12-15T05:26:00Z,28.3093,-89.9227,30.0,25.2,11111222
Walter,ioos:station:wmo:42896:2,2021-12-15T05:36:00Z,28.3093,-89.9227,30.0,25.2,11111222
Walter,ioos:station:wmo:42896:2,2021-12-15T05:46:00Z,28.3093,-89.9227,30.0,25.2,11111222
Walter,ioos:station:wmo:42896:2,2021-12-15T05:56:00Z,28.3093,-89.9227,30.0,25.2,11111222
Walter,ioos:station:wmo:42896:2,2021-12-15T06:06:00Z,28.3093,-89.9227,30.0,25.2,11111222
Walter,ioos:station:wmo:42896:2,2021-12-16T06:06:00Z,28.3093,-89.9227,30.0,25.1,11111222
Walter,ioos:station:wmo:42896:2,2021-12-17T06:06:00Z,28.3093,-89.9227,30.0,24.9,11111222
Walter,ioos:station:wmo:42896:2,2021-12-18T06:06:00Z,28.3093,-89.9227,30.0,24.6,11111222
Walter,ioos:station:wmo:42896:2,2021-12-19T06:06:00Z,28.3093,-89.9227,30.0,25.1,11111222
Walter,ioos:station:wmo:42896:2,2021-12-20T06:06:00Z,28.3093,-89.9227,30.0,24.8,11111222
Walter,ioos:station:wmo:42896:2,2021-12-21T06:06:00Z,28.3093,-89.9227,30.0,24.7,11111222
Walter,ioos:station:wmo:42896:2,2021-12-22T06:06:00Z,28.3093,-89.9227,30.0,24.4,11111222
Walter,ioos:station:wmo:42896:2,2021-12-23T06:06:00Z,28.3093,-89.9227,30.0,24.2,11111222
Walter,ioos:station:wmo:42896:2,2021-12-24T06:06:00Z,28.3093,-89.9227,30.0,24.2,11111222
Walter,ioos:station:wmo:42896:2,2021-12-25T06:06:00Z,28.3093,-89.9227,30.0,24.2,11111222
Walter,ioos:station:wmo:42896:2,2021-12-26T06:06:00Z,28.3093,-89.9227,30.0,24.1,11111222
Walter,ioos:station:wmo:42896:2,2021-12-27T06:06:00Z,28.3093,-89.9227,30.0,24.1,11111222
Walter,ioos:station:wmo:42896:2,2021-12-28T06:06:00Z,28.3093,-89.9227,30.0,24.2,11111222
Walter,ioos:station:wmo:42896:2,2021-12-30T06:06:00Z,28.3093,-89.9227,30.0,24.2,11111222
Walter,ioos:station:wmo:42896:2,2021-12-31T06:06:00Z,28.3093,-89.9227,30.0,24.2,11111222
